Flag for Czech Republic Weather past 2 weeks in Plzen, Czech Republic

Now
55 °F

Cool.


Feels Like: 55 °F
Forecast: 51 / 60 °F
Wind: 3 mph from West

Location: Kocelovice

Current Time: Oct 20, 2014 at 11:42:06 PM

Latest Report: Oct 20, 2014 at 11:00 PM


Visibility: 10 mi

Pressure: 29.97 "Hg

Humidity: 91%

Dew point: 53 °F

Location of PlzenLocation

Historic Weather in Plzen — Graph

°F

Plzen temperature yesterday

Maximum temperature yesterday: 62 °F (at 3:00 PM)
Minimum temperature yesterday: 45 °F (at 8:00 AM)
Average temperature yesterday: 51 °F

Past Weeks' High & Low Weather Summary

 TemperatureHumidityPressure
High67 °F (Oct 9, 4:00 PM)100% (Oct 9, 1:00 AM)30.31 "Hg (Oct 9, 1:00 AM)
Low43 °F (Oct 18, 8:00 AM)57% (Oct 14, 4:00 PM)29.75 "Hg (Oct 14, 2:00 AM)
Average55 °F90%29.96 "Hg
* Reported Oct 5 10:00 PM — Oct 20 10:00 PM, Plzen, Weather by CustomWeather, © 2014

Note: Actual official high and low records may vary slightly from our data, if they occured in-between our weather recording intervals... More about our weather records

Advertising

Plzen weather history for previous 24 hours

 ConditionsComfort  
Time TempWeatherWind HumidityBarometerVisibility
10:00 PM
Oct 20
56 °FOvercast.N/A91%29.98 "Hg11 mi
9:00 PM56 °FOvercast.2 mph88%29.98 "Hg16 mi
8:00 PM56 °FOvercast.3 mph88%29.98 "Hg16 mi
7:00 PM57 °FOvercast.3 mph87%30.00 "Hg16 mi
6:00 PM57 °FOvercast.3 mph86%30.00 "Hg16 mi
5:00 PM57 °FOvercast.6 mph84%30.01 "Hg16 mi
4:00 PM57 °FOvercast.6 mph83%30.02 "Hg16 mi
3:00 PM58 °FOvercast.6 mph78%30.02 "Hg9 mi
2:00 PM59 °FLow clouds.7 mph78%30.03 "Hg14 mi
1:00 PM59 °FLow clouds.8 mph79%30.05 "Hg14 mi
12:00 PM59 °FLow clouds.5 mph86%30.06 "Hg16 mi
11:00 AM60 °FOvercast.7 mph82%30.06 "Hg16 mi
10:00 AM60 °FOvercast.8 mph80%30.05 "Hg19 mi
9:00 AM60 °FOvercast.7 mph79%30.04 "Hg19 mi
8:00 AM60 °FOvercast.7 mph79%30.04 "Hg19 mi
7:00 AM60 °FCool.7 mph79%30.03 "Hg12 mi
5:00 AM59 °FCool.8 mph80%30.04 "Hg12 mi
4:00 AM60 °FCool.8 mph77%30.04 "Hg12 mi
3:00 AM61 °FCool.8 mph75%30.04 "Hg12 mi
2:00 AM57 °FCool.6 mph80%30.06 "Hg12 mi
1:00 AM54 °FCool.1 mph95%30.08 "Hg12 mi
12:00 AM55 °FCool.1 mph88%30.09 "Hg12 mi
11:00 PM
Oct 19
57 °FCool.2 mph85%30.09 "Hg12 mi
Weather by CustomWeather, © 2014

See weather overviewHow to use our weather pages